GFSSW_250_spd_096.txt.gz
Wind_Speed
69 74 73 72 69 64 59 63 66 60 61 61 64 71 76 84 91 93 98 101 100 97 93 87 85 86 85 87 91 90 84 81 79 80 77 71 65 64 53 44 52 51 52 60 61
46 40 38 29 25 24 25 26 29 32 37 42 47 52 58 66 70 74 76 82 89 102 100 95 90 90 86 85 89 89 88 87 87 84 79 77 69 68 61 69 58 53 59 62 65
7 9 7 12 13 16 19 22 26 29 31 33 38 44 50 58 58 59 62 66 71 74 81 84 90 93 94 92 91 91 86 89 88 89 87 77 67 65 56 62 74 72 64 63 65
11 12 15 16 18 21 22 24 27 31 34 35 37 39 42 51 48 47 51 54 61 69 71 73 70 75 87 96 95 91 89 91 88 88 86 79 74 70 62 50 49 59 59 62 68
14 16 19 21 23 25 27 30 32 35 37 40 42 42 39 43 40 37 37 44 51 59 66 69 67 66 69 72 81 88 89 91 91 88 86 84 80 78 68 73 59 54 55 60 68
16 18 20 24 26 32 32 33 37 37 42 44 48 48 49 43 36 30 31 35 43 50 58 62 66 68 68 68 68 70 75 81 85 81 83 85 84 83 75 78 84 70 70 65 66
23 23 25 26 27 30 35 39 40 40 42 46 49 52 55 48 40 29 26 29 35 43 52 59 61 65 69 71 68 71 72 72 71 77 84 83 83 79 78 83 80 74 71 69 71
19 21 24 27 28 29 31 38 42 44 44 46 48 52 56 51 45 37 27 25 29 37 43 51 59 62 64 68 73 75 72 75 76 76 81 87 71 76 83 83 80 77 70 71 70
20 20 22 28 31 32 33 38 41 43 45 48 50 55 57 59 48 43 32 28 27 29 34 42 50 58 63 66 68 71 74 76 78 82 78 78 72 81 85 81 81 77 75 76 72
21 21 24 27 30 35 35 36 40 43 47 51 56 57 58 59 55 49 36 27 30 34 34 29 35 43 50 55 63 71 70 73 79 82 85 79 72 86 85 81 82 79 77 81 74
20 24 27 27 29 32 35 38 41 43 48 53 57 59 63 63 60 52 42 27 31 34 37 39 41 40 45 51 55 60 65 68 72 77 84 77 80 82 90 88 81 82 77 80 76
21 24 27 27 31 33 33 38 41 45 49 55 59 62 63 66 64 60 50 32 32 36 36 34 37 42 45 46 47 53 57 59 63 69 73 80 75 86 85 90 88 82 78 73 75
22 24 27 30 30 31 35 38 40 46 49 55 60 64 67 69 70 67 58 46 37 40 36 33 31 37 42 45 44 45 44 50 54 60 64 68 77 76 84 86 83 82 81 79 79
25 24 27 28 31 33 34 39 41 44 48 54 60 62 65 70 73 73 66 57 44 43 42 36 34 33 34 36 36 38 38 39 41 52 57 64 66 75 77 80 84 78 78 69 78
32 32 26 25 29 36 37 41 43 44 47 50 61 64 64 70 72 74 74 67 58 50 48 41 35 31 28 27 25 26 26 29 33 40 53 58 54 61 75 72 71 76 78 79 70
25 31 31 27 29 34 35 41 45 45 44 49 60 62 64 68 72 76 77 72 65 53 55 49 41 33 27 23 19 16 14 14 21 28 39 48 47 58 66 72 66 61 65 70 77
26 29 30 29 32 35 37 38 45 49 43 47 57 61 65 68 72 77 80 79 70 59 53 53 44 34 28 23 19 14 6 5 16 17 27 33 39 47 54 66 65 62 47 51 61
26 28 29 30 30 33 35 41 42 45 45 53 56 57 62 68 73 77 80 81 78 68 56 55 47 38 29 24 19 11 6 2 7 14 22 29 35 39 40 54 65 60 61 54 53
27 28 28 29 30 32 32 38 39 41 46 48 53 55 59 64 70 75 79 81 80 73 64 54 51 38 31 22 15 8 11 21 26 16 24 30 32 25 29 43 48 62 59 44 48
38 30 29 32 34 31 34 40 39 40 42 44 48 54 59 65 68 73 78 79 80 79 69 59 53 43 34 27 22 9 24 24 22 13 23 29 31 39 43 46 56 62 58 56 55
39 36 33 33 38 38 35 38 44 44 45 47 46 52 57 61 64 67 75 77 77 78 75 63 50 44 35 26 18 12 14 19 16 5 10 27 31 36 41 47 48 48 52 50 50
45 38 35 35 34 38 38 39 44 47 47 49 49 48 54 59 60 63 70 76 74 76 74 67 58 46 36 27 21 9 7 19 16 11 6 23 30 37 43 41 36 42 42 47 49
46 44 40 38 41 40 43 41 44 44 45 47 50 47 53 56 56 59 65 71 74 74 74 69 61 50 39 31 21 16 4 13 21 19 15 19 15 19 24 28 37 38 44 47 49
47 46 47 45 46 44 44 44 43 45 45 45 47 47 49 51 52 57 60 66 73 70 72 72 62 52 42 33 24 17 11 8 11 15 11 19 22 16 19 25 29 38 40 42 44
40 48 47 48 50 50 48 42 45 44 45 43 44 46 50 49 49 55 56 63 69 70 70 71 66 55 46 37 28 20 13 13 10 10 9 7 10 12 15 20 26 32 37 40 43
53 46 51 53 52 54 51 43 46 41 40 41 45 46 50 47 50 52 53 62 66 67 70 69 67 61 48 41 32 22 15 13 17 15 14 13 13 15 17 20 22 27 32 36 38
59 56 52 52 52 57 54 46 47 43 40 41 42 46 48 50 48 51 56 60 62 67 68 68 65 61 54 44 34 27 18 12 13 20 23 22 22 22 23 24 25 28 31 33 36

GFSSW_250_spd_102.txt.gz
Wind_Speed
57 58 62 64 61 53 56 48 33 27 28 32 35 37 39 44 47 52 57 66 71 74 80 87 89 97 100 101 97 97 91 81 80 84 86 91 83 77 70 66 63 60 67 65 60
55 54 49 45 24 21 20 16 17 21 23 25 27 29 31 35 39 44 49 55 60 63 67 71 76 81 83 91 97 97 94 87 89 92 91 94 84 81 73 69 64 64 70 65 50
34 15 5 5 7 8 12 13 16 20 22 22 25 26 31 33 36 41 45 48 49 52 55 59 63 69 71 80 85 91 96 94 92 93 94 95 91 86 78 73 68 68 71 65 63
3 4 3 7 9 11 15 17 18 20 26 24 31 32 38 41 46 46 44 44 42 42 44 45 50 57 65 69 75 78 83 95 95 96 96 95 97 91 84 79 75 75 75 70 68
8 9 9 10 12 17 17 18 17 24 34 34 35 38 45 52 53 52 48 43 38 34 33 35 39 44 52 61 67 73 79 81 89 99 99 99 99 96 89 86 81 81 78 74 69
8 10 12 14 15 18 21 19 18 28 35 35 40 42 49 56 58 60 53 45 37 28 28 28 31 38 43 49 58 66 71 75 82 87 99 103 103 100 96 93 87 86 83 81 75
6 10 14 16 16 19 24 21 21 26 33 36 42 47 54 59 61 67 65 52 42 29 21 22 25 31 38 41 48 58 63 67 74 84 86 92 100 99 102 102 93 90 87 77 81
8 9 13 15 17 18 21 26 29 26 30 38 42 48 55 61 66 69 73 64 47 32 26 26 25 24 31 38 43 49 56 62 67 74 85 83 78 94 107 103 98 94 92 84 83
6 8 13 17 20 20 23 26 30 27 27 37 41 49 53 58 65 70 71 74 61 42 31 29 27 26 26 31 38 42 50 55 61 66 75 80 78 83 89 100 99 98 96 91 90
6 13 15 17 19 23 23 26 28 29 27 36 37 47 51 57 63 69 74 74 71 54 38 34 28 25 22 27 33 40 43 50 58 64 67 72 75 82 86 83 89 98 101 93 90
8 13 16 19 20 21 24 25 28 28 31 33 37 46 49 55 60 69 75 79 78 67 49 41 32 23 23 23 23 30 39 47 51 60 59 63 68 80 86 82 80 82 85 91 95
11 15 15 18 19 22 20 21 27 28 32 38 43 46 52 51 59 65 72 76 80 76 64 52 39 25 18 16 17 21 27 35 47 53 52 56 60 71 80 85 80 76 75 81 86
10 14 18 21 18 18 22 21 28 30 36 38 44 49 49 50 57 62 72 76 80 81 76 63 49 31 21 17 14 16 20 24 31 40 50 53 50 63 73 77 80 78 75 72 79
11 15 16 18 19 17 23 22 25 31 34 40 43 47 49 51 54 62 71 76 80 81 85 76 59 52 41 35 30 26 21 17 22 29 36 44 50 57 67 74 77 76 74 68 68
15 12 14 16 19 24 25 26 26 31 33 39 43 43 47 50 51 59 67 73 78 81 82 85 75 64 53 45 38 39 33 29 23 21 24 32 36 46 51 62 68 71 68 68 62
16 15 15 17 24 27 26 25 29 30 35 39 42 42 43 46 50 55 61 70 75 81 82 84 83 73 58 52 41 41 41 35 28 23 21 17 26 33 39 47 52 61 65 65 65
21 16 17 23 24 29 27 26 26 28 35 36 41 41 42 46 48 55 59 68 69 75 80 82 82 80 68 57 49 36 37 33 32 27 19 14 10 18 29 37 45 54 59 60 65
25 20 25 22 26 28 29 25 30 30 33 34 39 42 41 47 47 53 58 66 69 72 75 78 78 79 74 60 49 41 29 33 35 26 21 13 5 6 18 27 38 44 45 50 58
28 28 26 28 31 31 31 30 31 30 31 34 35 43 39 42 47 49 57 62 64 66 71 76 79 77 77 72 56 48 39 32 32 26 20 14 12 8 14 20 28 34 36 45 51
24 22 21 30 31 32 30 34 31 31 30 34 35 42 46 45 45 49 55 58 59 61 67 75 76 80 78 75 68 52 44 34 28 19 26 14 17 14 20 23 30 29 30 39 53
29 26 28 31 35 34 34 34 29 32 32 33 35 40 46 43 45 48 51 55 58 58 62 73 75 77 78 79 74 62 49 39 26 20 18 15 12 13 15 19 24 29 28 25 48
35 33 35 36 34 41 41 41 38 35 35 36 37 39 45 42 42 46 48 52 55 55 60 71 75 74 75 77 76 69 55 44 31 16 6 5 10 15 14 19 25 39 41 47 45
42 39 37 35 38 43 45 42 39 35 33 35 36 41 41 39 42 44 45 49 51 50 57 67 74 75 70 75 74 73 65 49 37 23 9 6 8 6 11 13 22 33 47 41 42
49 45 44 44 43 41 48 44 43 43 37 32 36 39 38 38 38 42 43 44 49 48 52 63 70 71 69 72 73 73 70 59 45 32 20 12 1 8 15 17 24 33 33 37 43
54 53 52 50 50 47 46 46 46 45 43 39 39 38 40 38 44 37 42 42 46 46 49 59 66 68 66 70 69 70 72 67 56 40 28 18 14 7 9 16 22 34 38 49 49
57 55 52 50 48 47 46 45 46 44 42 40 41 43 37 40 36 36 38 40 42 43 47 56 62 66 67 66 65 70 73 68 63 52 38 26 14 12 9 5 9 16 26 41 56
59 55 53 51 51 51 48 44 44 47 45 42 43 43 40 40 39 37 38 38 41 42 51 54 58 63 65 63 63 66 72 66 64 58 46 34 26 14 14 14 12 12 15 20 26

GFSSW_250_spd_105.txt.gz
Wind_Speed
48 46 48 51 52 59 60 57 48 27 21 20 21 23 25 28 31 35 41 46 52 58 62 66 69 73 76 82 90 95 94 91 87 90 92 95 92 84 80 78 71 68 69 67 71
48 46 50 43 47 35 14 11 12 14 16 17 20 22 25 29 30 33 36 41 46 51 58 64 68 70 74 78 81 83 87 93 94 97 98 101 97 94 81 78 80 75 75 71 73
37 29 24 12 8 4 7 8 10 14 18 19 21 25 28 36 40 43 46 45 44 44 47 51 57 63 69 76 77 77 78 85 98 101 99 101 101 98 91 83 78 76 73 72 74
7 4 2 3 3 6 7 8 9 14 18 22 23 32 39 42 49 53 54 55 48 43 40 40 44 49 54 60 61 66 74 79 85 95 105 103 105 101 94 89 86 83 81 75 71
10 8 4 4 6 10 9 7 7 12 17 24 28 32 38 45 53 59 59 61 54 44 34 31 33 36 40 44 49 55 64 69 76 85 92 103 106 106 99 95 91 86 86 79 73
10 9 9 9 8 11 14 14 12 11 16 22 30 35 40 45 51 60 63 64 63 50 36 27 26 29 32 35 41 44 52 61 70 76 81 88 99 107 105 101 94 87 87 82 77
6 7 10 13 10 11 14 13 14 11 19 23 29 36 41 44 52 61 67 69 69 56 40 30 30 30 29 30 33 38 45 51 59 70 76 82 88 96 108 108 100 92 89 86 83
7 6 6 9 11 14 14 15 15 15 20 27 31 35 41 43 50 60 67 68 71 66 45 34 30 29 30 31 30 33 40 45 51 56 68 75 81 88 98 108 105 97 95 90 86
3 4 7 7 8 13 12 14 18 15 25 29 33 36 40 45 49 58 67 70 73 75 61 42 32 25 27 31 29 31 37 40 46 48 57 66 70 79 86 92 100 105 98 94 88
1 4 5 7 9 10 9 13 19 21 25 29 34 37 41 45 47 55 65 69 75 80 77 57 47 36 30 20 24 29 32 39 39 41 48 56 65 75 77 79 87 91 97 98 94
5 5 9 12 11 11 10 14 18 23 27 31 35 36 39 46 48 54 65 69 75 78 78 69 50 39 31 29 21 20 24 30 38 40 40 46 54 68 76 74 79 85 87 89 97
7 6 8 11 11 12 15 17 18 21 26 32 37 36 40 46 46 54 63 66 74 76 83 81 70 51 40 30 23 13 16 18 24 34 39 44 49 57 67 73 74 81 83 83 81
7 11 10 9 11 14 19 21 20 23 24 31 35 38 38 46 49 52 61 65 71 76 81 84 81 68 52 45 37 30 30 25 18 19 28 38 48 55 63 68 70 72 76 79 76
11 15 17 10 11 16 20 21 21 23 24 30 34 37 39 45 50 49 57 60 64 75 78 79 83 78 64 51 46 35 32 30 31 31 23 21 38 46 48 57 66 60 63 71 71
19 16 19 16 15 17 20 21 21 25 28 29 31 35 39 43 48 51 55 60 59 69 77 79 82 80 74 60 50 40 33 32 34 33 33 26 20 37 38 46 56 53 55 59 63
21 19 19 17 16 22 26 25 24 25 27 28 32 34 38 45 46 49 50 57 58 63 71 74 78 77 77 68 55 46 35 30 31 33 33 31 21 22 26 34 46 49 48 53 57
25 22 23 21 20 25 26 28 25 27 26 29 29 35 37 44 43 46 47 52 57 61 69 73 76 77 77 77 65 51 38 33 29 30 29 30 22 11 13 21 31 41 42 48 55
30 29 27 27 22 27 33 34 30 27 28 27 29 34 35 42 41 43 44 50 54 54 61 69 70 74 74 77 72 60 45 33 30 31 33 34 25 16 5 13 22 31 36 42 53
36 33 34 31 25 24 33 31 31 30 30 30 32 33 36 37 39 43 43 49 51 52 53 66 69 69 73 79 77 72 57 42 34 30 30 28 24 19 10 2 16 25 30 37 46
42 39 33 24 28 27 33 36 35 34 33 31 31 31 34 38 38 42 42 47 45 51 52 62 65 69 71 76 79 78 71 52 39 32 24 23 24 19 16 4 10 18 27 32 43
40 35 33 31 30 30 39 39 36 34 32 29 30 31 32 37 40 39 44 46 44 46 51 57 61 63 67 71 75 78 75 64 47 34 29 20 19 16 12 8 7 19 25 29 37
46 41 35 33 33 34 41 41 39 38 34 30 32 33 36 35 40 39 41 42 43 44 49 54 60 60 62 67 70 73 75 71 61 43 29 24 16 10 8 5 7 16 23 25 34
51 49 43 39 37 34 37 42 47 39 40 34 33 36 38 38 37 37 36 40 39 42 46 53 61 60 58 62 66 70 73 75 67 56 38 25 21 12 2 3 9 12 20 24 28
56 49 44 38 40 40 40 45 51 45 40 34 35 33 37 36 34 38 39 38 38 42 46 50 56 57 58 60 63 69 69 70 70 61 48 33 20 16 8 7 14 22 21 27 25
62 57 54 49 49 49 46 46 48 48 42 35 35 33 34 35 34 34 38 37 37 40 46 51 52 52 55 58 59 64 66 64 66 64 56 44 31 18 12 5 15 30 33 34 36
69 67 65 61 54 52 50 51 50 48 43 38 36 40 39 35 34 35 35 36 35 41 49 50 49 49 52 56 59 61 62 62 61 61 55 50 40 27 16 10 8 17 38 43 40
74 72 68 63 57 53 55 51 48 46 45 38 40 40 39 37 33 33 36 35 36 41 47 50 48 48 50 54 57 58 61 59 57 56 53 50 47 38 22 14 12 11 19 36 42

GFSSW_250_spd_108.txt.gz
Wind_Speed
42 44 49 47 49 55 55 47 43 38 18 15 14 14 14 19 29 34 37 38 40 42 45 53 63 69 73 74 75 80 82 89 94 95 97 99 98 93 82 80 80 74 75 75 73
41 38 41 34 36 34 20 14 10 6 7 8 10 13 18 27 36 42 45 47 46 49 47 48 53 60 67 71 73 76 76 77 84 94 101 102 103 100 92 83 77 77 80 79 78
26 30 34 34 20 3 3 3 1 6 8 9 10 18 20 29 35 45 49 53 54 54 51 47 46 47 52 59 65 72 76 78 78 83 92 106 104 106 99 94 86 83 77 84 80
23 13 5 5 2 2 4 1 1 3 8 10 14 21 27 30 36 44 48 55 59 60 57 47 39 37 38 43 52 60 67 73 75 78 82 92 104 111 104 96 92 87 81 81 79
9 9 5 4 4 3 4 3 1 3 8 16 19 23 27 31 36 45 50 59 63 64 62 48 38 32 33 35 38 44 53 59 64 70 75 85 93 97 105 98 95 91 86 86 83
12 9 9 9 5 5 5 5 1 4 12 18 21 26 29 32 36 47 51 59 64 68 66 55 40 35 33 33 35 38 42 46 50 58 65 73 86 93 96 107 99 97 91 90 89
11 11 10 9 6 6 8 9 5 9 12 17 22 26 28 34 39 46 52 59 66 69 70 64 47 37 31 31 30 32 36 36 41 46 52 61 73 85 91 97 103 102 98 92 90
11 8 6 4 4 5 5 8 8 10 15 17 22 26 32 35 40 48 50 58 64 69 70 71 55 42 30 28 25 25 27 32 34 37 42 49 62 75 82 91 93 104 102 96 93
9 6 3 2 1 3 3 6 9 11 17 22 25 26 33 40 39 46 51 54 65 66 70 72 70 49 36 29 24 25 24 24 29 32 35 38 48 64 72 80 84 91 98 107 96
9 4 2 1 1 1 3 6 9 12 16 22 27 28 33 40 41 43 51 52 63 65 72 73 75 68 50 35 23 22 19 23 23 26 30 34 41 50 61 71 78 81 88 91 99
8 5 3 1 2 1 4 8 11 16 17 23 28 29 35 42 41 42 49 54 58 64 70 75 76 75 66 49 31 24 13 14 14 19 23 30 38 46 52 57 67 75 78 82 85
8 5 3 3 3 1 7 11 14 15 19 23 28 29 33 40 42 42 47 53 53 65 69 72 80 77 73 61 46 32 25 17 8 10 15 22 28 40 50 54 58 65 69 71 76
11 9 8 6 4 4 8 10 14 17 20 24 26 29 35 38 40 43 48 50 55 59 66 68 73 79 78 72 57 43 29 24 22 16 13 18 26 34 41 51 55 58 60 64 68
16 14 12 16 13 12 13 17 18 18 20 23 24 28 35 37 39 42 49 49 53 54 62 64 66 72 78 78 65 52 39 29 22 21 24 22 29 32 37 44 54 54 57 61 65
22 20 20 18 19 16 15 19 22 19 21 25 25 29 32 36 39 43 49 49 49 50 60 62 66 70 75 79 75 67 50 37 30 26 29 27 30 26 29 32 39 46 49 56 64
28 26 24 22 20 22 20 23 34 32 28 27 26 30 30 34 39 41 48 47 47 50 53 59 62 67 72 75 77 76 64 48 40 35 32 28 32 29 23 20 26 32 39 46 60
32 29 26 25 24 23 28 32 34 32 28 27 27 30 32 32 38 39 45 47 45 51 50 58 60 63 69 76 77 78 77 62 46 37 36 31 31 21 16 12 14 21 29 39 53
36 35 32 28 28 30 28 27 34 35 27 25 28 30 31 32 38 39 40 44 44 46 50 55 55 58 62 68 71 72 76 69 56 42 41 40 31 32 22 11 5 13 24 33 44
42 39 38 36 32 31 32 29 32 40 28 26 26 27 31 32 36 38 37 40 43 44 51 52 55 55 60 64 70 71 73 76 69 53 42 39 38 35 29 19 6 9 19 27 39
46 45 45 43 41 37 29 31 31 40 26 26 27 29 32 35 37 37 37 38 40 44 50 51 52 54 58 64 67 73 71 69 66 61 48 38 36 35 32 25 12 7 18 29 40
52 49 48 46 44 38 33 27 31 42 37 27 27 30 31 34 34 35 36 38 39 41 47 51 52 52 54 61 65 71 70 66 64 63 56 41 33 30 28 24 16 8 16 28 38
59 53 51 47 44 40 37 32 32 35 45 32 32 31 31 31 29 34 34 34 38 41 46 50 51 50 52 57 62 68 67 64 63 60 59 49 33 29 24 21 15 8 14 19 25
67 61 54 51 47 43 43 38 31 31 45 41 35 31 33 31 28 32 34 35 36 41 45 48 49 49 50 53 59 65 66 66 60 59 56 55 43 28 21 18 13 5 4 15 22
71 66 66 58 54 51 45 36 36 38 41 53 39 35 32 31 29 32 31 33 37 41 44 45 45 46 49 51 59 65 64 65 61 58 56 53 51 39 23 12 11 10 1 10 19
73 70 66 60 65 59 51 44 39 39 43 49 49 38 35 31 30 30 33 33 38 40 42 43 43 44 47 49 57 62 62 63 61 56 55 51 49 48 35 19 6 7 6 5 18
78 74 74 69 63 57 50 54 50 47 48 46 50 45 36 32 29 30 30 35 39 40 41 42 43 44 44 49 57 57 61 63 59 58 52 52 47 44 43 32 17 9 16 16 16
80 82 80 76 72 63 58 57 54 51 50 49 49 48 39 36 34 29 32 36 36 37 39 43 43 46 45 49 53 54 59 61 59 59 53 48 48 44 40 38 28 17 10 26 26

GFSSW_250_spd_111.txt.gz
Wind_Speed
33 36 33 33 36 43 43 41 42 43 36 12 8 6 2 7 15 22 30 36 38 40 45 46 51 53 57 61 67 71 69 73 78 80 98 104 102 98 90 86 82 77 77 79 77
35 36 37 41 42 34 29 25 22 3 1 1 2 5 7 13 21 27 31 37 39 45 49 51 53 53 49 50 55 61 67 70 72 76 80 92 106 107 101 93 85 80 83 81 79
20 18 16 20 15 12 7 8 6 2 3 1 2 9 12 16 22 29 33 39 45 49 52 56 53 47 39 38 41 46 52 60 69 74 79 84 89 101 107 100 100 90 84 82 81
19 19 14 8 8 5 6 6 6 5 4 9 10 10 17 21 24 29 33 42 47 51 54 58 56 42 34 35 36 39 41 46 54 62 68 78 84 88 95 107 104 98 91 85 82
16 9 11 10 5 4 5 7 8 6 8 10 12 15 19 24 29 31 35 42 48 53 57 62 61 48 45 37 30 34 38 37 42 51 56 65 75 83 85 91 99 107 98 91 89
16 13 11 11 8 6 5 6 7 4 6 10 14 16 21 24 26 33 36 40 49 53 60 65 63 59 46 37 32 29 29 34 36 38 43 51 61 69 82 85 86 92 103 96 93
16 15 14 12 8 7 7 7 7 8 8 11 12 19 23 25 27 31 39 39 48 52 61 65 67 65 54 47 41 30 22 22 30 35 38 41 46 56 67 77 84 83 88 103 97
18 16 14 12 8 7 6 8 7 6 7 11 14 19 25 24 28 33 38 43 46 53 59 64 68 68 61 46 40 38 24 14 16 25 32 36 42 45 51 62 74 80 83 87 100
17 14 10 10 9 11 11 7 4 1 5 10 14 19 24 26 28 33 40 43 47 51 55 62 69 70 69 65 48 37 32 27 16 14 21 29 35 37 42 50 60 69 78 83 87
16 13 13 10 9 9 6 2 2 5 8 12 15 18 26 26 27 33 39 42 45 50 53 59 67 69 70 71 60 46 36 25 22 16 14 20 29 32 35 44 50 58 67 78 84
18 13 11 10 10 9 7 3 4 7 9 13 15 19 24 28 29 34 38 41 46 50 54 58 63 70 70 71 68 57 44 33 23 18 16 14 19 27 33 35 42 50 59 67 77
18 16 14 12 12 12 8 5 5 8 10 13 17 21 23 27 32 34 38 38 46 49 52 56 62 68 70 67 68 63 50 40 30 21 19 14 17 23 30 38 41 45 52 61 70
19 18 17 15 14 12 9 5 7 9 10 16 21 22 25 28 33 34 36 36 43 49 51 54 57 61 67 69 68 66 59 45 35 30 27 19 16 19 25 33 40 45 51 54 61
19 19 18 17 15 15 14 11 11 11 16 20 23 22 27 28 33 37 35 37 38 48 52 51 54 58 64 70 69 67 62 53 40 33 27 23 26 29 27 24 33 43 44 53 57
25 22 22 20 18 15 14 13 14 18 22 22 21 20 26 27 33 36 35 38 40 44 50 51 52 58 63 70 69 66 65 59 48 38 38 34 30 33 29 27 22 33 30 44 55
30 29 28 25 24 23 21 20 24 23 28 28 22 19 24 26 31 36 35 38 41 44 49 52 51 55 60 67 70 69 66 64 59 48 38 31 28 29 28 22 20 23 22 32 49
38 34 33 32 27 26 25 24 24 26 30 33 26 20 24 27 30 33 36 37 42 45 46 52 51 53 59 65 70 68 66 65 63 54 43 38 30 31 33 22 12 11 18 24 41
44 41 40 38 31 29 27 26 27 27 33 33 24 18 23 28 29 31 34 36 38 43 44 48 50 50 54 60 65 65 63 63 64 64 52 46 36 34 34 23 11 1 12 25 35
49 46 45 43 39 34 32 30 28 29 30 34 30 20 21 28 29 31 32 34 37 43 44 44 48 50 52 59 64 64 62 63 66 63 60 50 45 36 36 32 20 7 11 23 33
55 53 51 47 44 41 38 36 36 32 31 35 33 23 21 27 29 34 31 31 34 41 42 44 46 49 51 59 61 62 63 61 60 62 63 57 50 44 33 32 26 12 9 16 30
63 58 56 52 49 46 44 40 40 38 32 32 39 26 23 23 28 34 32 30 31 39 41 43 45 49 50 56 59 64 64 61 60 59 59 59 53 46 36 32 29 16 10 16 27
69 65 63 58 55 54 49 44 44 41 37 35 33 31 24 22 27 30 29 29 29 35 39 41 44 47 50 51 57 60 62 64 61 57 58 59 57 49 42 30 26 21 9 13 17
74 72 71 63 59 59 56 51 46 43 41 41 32 38 33 22 26 31 29 30 28 32 36 38 44 45 48 48 54 56 61 64 63 59 54 55 54 54 46 38 26 20 11 10 11
76 72 67 64 69 67 63 54 51 48 44 39 35 33 40 28 26 30 31 28 28 29 33 35 41 44 47 47 50 55 58 61 65 63 56 51 50 49 48 42 34 23 14 4 13
82 76 72 67 70 70 64 63 63 58 52 45 38 33 41 38 27 29 30 29 27 28 31 33 37 43 45 45 48 53 55 60 62 65 60 55 49 46 44 43 37 27 21 10 6
85 81 79 74 75 72 65 64 66 60 47 44 41 39 39 39 36 30 32 31 31 28 31 33 36 40 45 43 43 48 52 55 59 64 63 57 53 46 42 40 37 33 23 19 11
88 85 85 81 79 77 71 73 69 63 57 50 47 44 46 45 39 35 33 33 33 29 29 32 37 41 43 44 40 43 48 50 54 59 62 58 55 50 44 39 36 32 30 20 15

GFSSW_250_spd_114.txt.gz
Wind_Speed
31 27 31 28 27 29 27 32 35 30 30 24 14 5 4 6 9 7 15 19 25 31 37 41 44 49 54 57 57 58 60 65 71 74 78 85 93 103 106 97 90 82 85 83 83
30 29 32 31 31 32 31 33 30 24 9 3 5 1 5 6 8 11 16 22 28 31 38 43 46 52 55 50 45 46 48 52 60 68 72 81 86 90 93 101 99 93 85 86 83
23 30 27 19 14 17 18 17 11 5 6 6 4 3 2 6 12 16 20 24 29 32 39 44 48 52 51 41 36 32 34 42 48 53 63 73 80 88 89 89 101 101 95 88 86
24 16 15 19 16 13 12 11 10 10 6 5 5 3 5 8 13 19 25 26 31 34 39 47 51 52 53 45 33 28 26 29 37 43 48 60 70 81 87 88 88 97 97 91 86
20 17 16 13 13 12 10 11 12 11 9 7 5 6 10 11 14 21 24 29 32 36 40 45 53 55 57 54 44 38 29 26 28 32 40 46 56 67 77 86 87 87 94 97 97
19 13 18 17 12 11 11 15 15 11 9 7 4 8 8 12 18 20 25 28 33 37 42 47 54 56 58 60 53 44 35 29 25 26 32 39 44 54 64 74 82 87 83 90 102
19 22 20 17 14 13 14 14 14 10 7 4 1 9 11 13 19 24 27 28 32 38 41 47 54 59 58 60 56 48 39 32 24 24 26 32 39 44 49 59 70 79 84 82 86
25 21 20 20 16 14 15 16 14 10 6 0 4 8 11 13 17 24 27 27 32 38 42 46 51 59 58 57 56 52 41 32 29 21 21 26 32 34 37 44 55 66 76 82 82
25 22 22 20 19 18 18 17 14 9 3 4 6 7 12 16 18 22 27 29 32 38 42 44 49 58 62 59 59 56 47 36 29 27 20 21 24 28 31 34 41 50 63 74 81
24 22 21 22 20 19 18 15 10 6 4 3 7 10 10 16 19 21 26 31 33 37 42 44 48 55 63 62 60 58 55 42 31 27 21 21 23 21 25 31 36 43 52 63 73
23 24 22 20 19 21 17 13 11 9 7 5 8 10 13 14 21 23 25 30 34 38 43 45 49 54 62 61 61 59 57 51 38 28 22 19 21 25 23 27 34 38 46 53 64
25 25 22 22 21 21 19 15 12 9 7 5 10 13 14 15 20 26 25 29 35 39 43 46 49 53 59 59 57 56 57 58 46 31 25 21 18 19 24 29 29 37 43 50 57
27 24 24 24 23 23 21 17 14 12 10 7 12 14 14 17 18 26 27 29 34 38 41 45 48 52 59 61 58 58 58 56 55 44 32 22 18 16 19 21 28 34 41 47 54
30 27 27 26 26 25 24 20 16 13 12 11 9 13 15 17 19 25 28 28 35 38 40 44 47 52 57 62 61 60 58 57 54 50 40 30 23 25 25 26 23 29 36 42 51
34 31 33 30 28 26 26 23 21 17 17 17 16 14 15 15 19 24 27 30 32 38 41 42 47 51 56 62 61 61 60 58 60 58 49 38 30 31 30 25 24 19 29 36 43
37 36 35 33 32 30 25 24 22 24 23 20 19 21 14 16 18 24 29 32 31 36 40 42 45 50 55 59 62 64 62 62 60 58 55 39 32 32 31 28 23 17 17 25 33
42 41 40 38 37 34 31 28 27 25 24 22 18 19 17 18 19 22 27 30 31 31 37 40 44 48 52 58 63 67 67 62 61 59 59 51 39 27 31 26 22 16 8 17 27
51 49 47 43 42 39 36 33 29 28 27 25 23 20 16 20 23 21 26 30 31 32 34 38 42 46 49 54 58 64 67 66 64 63 61 59 49 40 38 29 23 13 2 15 23
58 56 54 51 48 44 41 37 32 32 29 26 26 25 18 21 20 21 24 28 31 33 32 35 41 43 46 48 56 61 66 71 69 63 62 61 57 44 36 33 30 18 4 12 21
63 61 60 58 55 52 48 45 40 37 34 31 31 29 24 21 21 20 21 24 29 31 33 33 37 41 44 46 50 57 62 67 69 68 64 62 61 55 42 39 34 23 13 4 14
69 66 66 63 60 57 55 50 47 42 39 36 33 33 32 26 22 21 22 23 27 30 32 32 34 38 43 45 47 52 58 62 68 68 66 62 61 58 49 37 34 29 20 8 11
68 67 73 69 65 62 61 57 53 49 45 42 39 38 36 31 25 23 22 23 26 28 31 33 34 35 40 43 45 47 53 57 64 67 67 66 59 57 53 43 30 29 23 16 3
80 72 71 70 68 67 67 61 57 55 50 48 44 42 39 31 30 29 29 24 26 25 29 33 32 34 36 40 43 43 48 53 58 62 67 65 64 57 53 49 38 24 20 14 8
89 84 74 67 69 73 72 68 62 60 57 53 51 45 41 36 35 34 25 26 27 25 26 31 33 34 34 36 39 43 44 49 53 57 61 64 64 61 53 49 44 33 20 16 8
94 89 82 73 66 69 75 74 69 68 60 56 54 52 48 39 32 33 24 24 28 27 25 31 33 32 33 34 36 39 41 45 49 53 56 60 62 62 58 50 45 41 31 17 11
96 92 91 82 79 77 75 68 65 69 66 59 55 46 44 36 41 39 31 24 28 29 30 31 34 30 30 32 32 36 38 42 45 50 52 55 57 60 61 56 47 41 36 30 14
98 94 94 93 88 84 75 74 79 78 69 63 56 53 47 43 44 47 44 37 32 31 32 30 34 29 28 28 30 34 37 39 42 45 49 50 52 56 59 57 51 44 37 31 27

GFSSW_250_spd_120.txt.gz
Wind_Speed
55 56 55 57 63 56 43 37 31 26 24 26 27 25 24 19 13 10 14 16 18 19 23 28 32 36 41 45 51 58 60 58 55 53 56 52 57 70 80 82 86 92 89 73 63
39 40 40 39 37 33 29 32 27 25 23 26 27 23 15 10 9 10 11 13 16 19 23 28 33 38 42 47 54 58 58 56 51 44 42 46 48 55 65 79 84 84 85 84 93
28 31 29 29 30 35 29 35 32 31 25 22 17 13 9 10 10 11 12 15 17 20 25 29 35 38 43 49 53 53 55 52 51 45 36 38 43 46 50 63 78 83 83 84 101
26 28 27 29 31 29 32 32 22 17 18 16 16 13 10 11 12 13 13 14 18 20 26 30 35 39 43 46 50 51 52 51 50 44 34 30 34 36 39 53 64 75 81 85 94
25 24 26 26 31 35 33 29 21 16 17 17 14 12 12 11 8 9 11 14 18 21 26 30 34 38 43 47 49 51 51 50 49 43 34 27 25 28 35 42 52 61 75 84 86
10 15 23 29 22 20 21 21 17 20 19 17 15 13 11 9 8 10 11 13 16 22 27 31 35 38 43 49 52 51 51 51 49 45 34 25 24 21 28 35 43 54 62 74 82
17 21 25 24 25 23 21 20 21 23 22 18 16 13 8 5 6 8 13 15 17 21 26 30 35 39 45 50 54 55 50 52 54 48 36 26 22 20 20 25 35 42 52 61 70
23 24 24 29 23 20 22 22 25 25 23 20 19 14 9 7 5 9 14 16 17 21 24 30 34 39 45 48 59 61 54 50 51 51 44 31 24 20 19 20 26 35 44 49 58
32 28 26 27 22 24 23 24 28 25 24 23 18 15 12 11 7 9 13 15 17 21 24 27 32 39 45 48 50 57 59 56 53 54 50 38 29 21 20 20 20 26 36 45 49
25 26 28 26 27 27 25 27 30 26 25 22 18 13 10 11 11 9 13 16 17 20 22 27 34 38 42 48 55 61 64 63 56 56 52 44 33 25 20 18 18 21 28 37 46
27 29 28 28 30 30 27 28 31 28 26 22 18 14 13 11 10 10 11 15 18 20 23 26 32 36 43 49 54 60 63 64 61 55 53 52 40 29 23 20 20 21 21 32 41
27 31 30 32 33 33 31 31 32 30 27 23 19 16 14 12 11 11 11 13 17 20 23 27 33 38 42 48 52 56 60 64 64 58 52 54 47 33 28 29 26 23 24 25 36
26 30 32 34 37 35 33 33 34 33 28 25 22 19 15 14 13 11 9 12 15 19 23 28 32 38 42 46 50 53 59 64 66 65 60 54 49 36 28 29 31 27 23 25 29
30 31 35 38 39 37 36 36 36 35 31 28 25 23 15 15 15 14 12 11 15 17 22 27 33 38 43 44 47 50 55 60 66 69 66 60 54 43 32 30 27 25 21 18 28
37 36 39 40 40 39 39 40 41 37 34 32 30 26 21 17 15 16 15 14 16 17 20 26 31 37 42 45 44 48 53 58 63 67 68 63 60 61 46 39 29 18 16 15 20
42 45 45 44 42 42 41 42 44 40 38 35 32 30 27 21 17 16 17 19 20 18 19 24 29 35 39 44 43 46 51 55 62 65 67 69 70 59 49 46 39 29 17 11 13
50 50 53 52 51 47 45 46 45 44 43 40 35 32 32 23 22 18 18 19 22 21 19 22 27 33 37 40 43 45 48 52 58 64 70 74 69 61 57 50 47 38 25 15 3
58 53 57 58 58 54 52 47 46 49 46 45 41 37 33 30 29 23 20 17 21 22 19 21 26 32 35 38 41 43 47 50 53 60 66 71 69 70 65 55 49 45 36 23 12
64 62 58 63 63 62 58 51 51 53 47 49 46 42 38 35 32 29 21 22 23 22 19 21 24 32 33 35 37 41 44 48 52 56 60 62 69 69 67 64 55 50 46 31 19
69 66 65 64 68 66 62 59 58 54 54 52 49 46 43 39 35 33 29 22 25 24 21 21 22 32 31 33 35 38 43 46 50 52 56 62 67 72 69 66 61 55 46 42 27
76 71 72 71 70 69 59 64 66 61 60 57 55 53 49 45 39 37 33 29 22 26 26 23 22 28 29 31 38 37 40 44 47 51 54 58 62 65 70 67 63 57 51 42 35
85 77 76 78 72 67 64 70 68 65 64 62 60 58 54 49 45 41 38 35 30 25 29 29 21 20 27 39 36 37 37 41 44 47 50 54 56 60 63 67 65 59 54 50 39
92 84 87 85 70 66 69 74 69 69 68 67 64 62 59 54 52 45 40 38 38 33 31 31 25 21 32 34 29 34 36 39 43 44 47 49 53 56 57 60 64 64 58 52 46
94 100 90 89 73 72 73 76 69 76 73 71 69 66 63 60 55 53 48 46 42 39 41 31 26 27 36 27 28 31 34 37 40 41 44 45 49 51 54 55 57 60 62 56 50
102 95 96 97 82 77 77 77 76 73 70 75 71 69 69 65 60 58 54 51 45 43 44 34 29 36 31 23 26 26 30 34 36 38 40 43 45 47 48 51 53 54 56 58 55
105 98 101 103 99 88 84 76 75 77 72 69 72 78 75 68 65 62 58 54 47 41 45 38 33 28 26 23 24 25 28 32 34 35 37 39 42 43 46 46 48 50 51 53 54
115 104 105 102 106 96 80 77 77 80 78 74 73 76 66 68 63 66 61 58 52 38 44 36 31 28 26 25 23 25 26 29 34 33 35 36 38 41 42 44 45 45 49 49 51

GFSSW_250_spd_123.txt.gz
Wind_Speed
58 57 62 69 68 72 71 65 63 60 58 53 33 28 29 28 22 19 14 16 13 16 18 22 25 28 32 35 39 45 50 54 52 50 51 52 54 63 63 63 73 81 76 79 81
49 49 49 49 51 43 41 41 41 34 29 25 21 23 26 24 20 13 10 9 12 14 17 20 24 28 31 35 39 45 49 48 46 47 47 47 47 49 50 48 58 77 80 75 73
31 41 39 36 31 31 28 26 28 27 27 27 32 31 22 19 14 12 10 11 14 16 17 20 24 29 32 36 42 48 54 52 46 46 44 43 37 37 41 43 49 64 75 75 76
15 18 23 21 22 24 26 26 29 27 21 22 23 20 18 14 14 12 12 15 15 16 16 19 22 26 32 38 44 50 54 55 48 45 43 36 31 30 33 35 42 58 65 76 74
13 19 21 22 24 27 26 25 25 27 28 27 19 19 18 16 14 13 13 12 12 13 15 18 22 26 33 39 45 50 55 56 49 46 43 33 27 25 24 26 31 46 59 70 82
8 11 19 20 23 25 25 29 25 24 23 20 21 20 19 17 14 14 14 14 11 11 14 18 23 29 34 39 45 50 55 58 55 48 43 36 27 22 18 18 25 37 51 63 78
26 11 13 15 20 21 23 21 21 22 24 22 23 21 18 16 15 13 9 8 8 9 15 20 25 29 35 40 45 50 56 60 63 53 49 39 29 21 16 14 19 31 41 53 66
33 21 16 18 22 21 20 20 21 23 24 24 24 21 18 15 14 11 8 6 7 11 15 20 26 30 35 39 47 52 54 56 57 56 51 48 33 24 18 13 15 21 32 45 59
33 30 26 24 24 21 26 23 20 24 26 28 24 23 18 16 15 13 10 7 9 11 15 19 26 31 37 43 43 47 53 58 60 62 55 49 41 28 19 13 9 16 26 35 50
35 33 30 30 30 24 24 25 25 26 30 30 27 24 21 20 18 16 13 9 11 12 16 19 25 30 36 40 44 51 56 61 64 64 60 53 46 36 28 18 14 14 21 30 41
37 34 32 30 29 26 26 27 27 29 33 32 30 26 22 20 16 16 15 10 10 11 13 18 24 30 35 39 44 50 54 57 61 64 63 55 53 40 34 28 20 17 17 25 36
43 37 32 30 29 28 28 29 30 35 34 33 31 27 24 21 19 18 15 10 10 12 14 18 22 28 34 39 45 49 53 55 59 64 67 62 54 46 37 36 31 18 19 23 30
50 47 38 31 32 30 31 32 32 37 35 34 33 29 26 24 21 20 17 13 11 11 14 17 22 29 33 38 44 48 52 55 57 61 66 66 57 45 35 33 30 26 19 23 29
49 48 42 36 28 29 34 35 36 37 39 36 34 32 28 25 22 20 19 16 14 14 14 16 19 28 32 37 41 45 49 53 58 61 65 68 64 59 48 37 22 18 22 21 26
57 50 44 40 32 33 36 39 40 38 40 39 36 34 31 27 24 21 19 19 19 18 17 18 21 26 33 36 39 44 49 53 59 61 65 69 73 70 57 46 38 25 16 17 13
55 53 48 43 41 37 37 41 42 39 44 42 40 37 35 30 28 23 20 19 20 21 21 20 19 25 30 33 38 42 47 52 58 60 62 66 74 71 63 55 47 34 26 15 2
62 60 55 47 48 46 45 40 42 41 46 48 44 42 39 36 33 32 26 23 20 17 21 19 20 22 29 30 37 41 44 50 54 58 61 65 69 71 70 64 53 45 32 19 9
67 66 65 57 55 52 52 49 39 46 47 51 50 46 43 40 39 36 32 31 28 19 22 21 21 21 26 26 41 42 41 46 51 56 59 62 62 65 68 64 58 52 42 30 14
77 75 69 72 62 61 56 52 50 53 48 52 52 51 48 46 40 38 35 35 32 22 21 20 20 20 21 22 36 39 37 41 47 53 55 57 60 62 65 67 63 57 45 31 20
82 85 74 79 74 66 60 51 60 61 54 56 55 53 53 50 46 42 39 37 36 30 23 20 21 23 18 24 34 32 32 37 42 46 51 54 60 63 64 65 64 58 52 37 23
91 90 85 87 81 73 58 55 62 71 64 61 58 55 55 54 51 49 46 42 39 35 29 21 18 20 19 28 30 25 29 33 37 42 48 53 56 58 59 62 64 63 57 48 36
103 95 86 89 86 72 62 62 67 72 69 67 64 60 58 58 55 53 51 47 44 40 35 31 25 23 22 25 31 25 26 28 33 38 42 46 51 52 55 59 58 61 60 55 46
106 97 100 96 88 73 71 70 73 71 65 72 71 65 65 61 59 58 57 54 49 42 39 33 34 32 25 25 26 22 23 27 29 33 36 40 45 49 50 52 57 55 57 58 51
104 107 109 103 92 81 79 84 77 74 66 73 76 71 68 65 64 62 60 58 54 47 46 40 39 41 32 25 25 20 21 23 25 29 32 36 38 43 47 48 50 52 52 53 54
108 105 102 101 91 85 85 89 87 82 69 72 73 71 72 70 69 66 64 61 58 54 50 46 44 44 35 23 20 19 18 21 24 25 28 29 34 37 40 43 45 45 49 48 48
107 100 110 103 95 94 94 92 92 87 76 72 66 75 80 75 72 71 68 65 61 57 52 50 45 44 35 28 22 21 15 18 23 24 27 29 30 33 36 39 41 43 42 45 46
103 108 118 102 99 99 91 91 94 94 86 83 79 77 81 81 79 72 70 66 63 58 55 50 43 43 34 25 26 22 18 19 20 22 24 28 30 32 33 34 37 39 41 40 41

GFSSW_250_spd_129.txt.gz
Wind_Speed
39 41 26 23 40 52 60 56 57 61 57 61 55 61 59 59 60 49 62 46 26 27 26 24 19 16 17 20 20 22 27 32 39 45 50 51 54 50 48 50 53 58 66 72 77
41 44 43 24 22 36 43 51 52 58 60 62 60 60 61 53 50 47 40 23 27 25 22 17 15 15 17 17 20 25 29 33 39 44 52 56 58 53 44 45 51 57 60 65 69
42 41 42 40 22 27 30 33 33 38 44 46 42 46 35 29 28 24 19 23 25 20 18 13 13 13 15 16 21 25 29 34 40 46 54 59 62 54 48 45 46 51 57 59 63
48 44 43 41 34 19 24 41 43 36 28 33 29 29 23 23 26 24 25 24 22 20 15 13 12 12 14 17 21 25 30 35 40 48 54 59 63 55 46 44 38 36 43 48 57
49 47 43 44 39 28 16 19 21 21 17 17 19 22 21 16 18 21 22 22 22 18 15 13 12 12 13 17 21 25 30 36 43 49 55 60 64 58 50 39 31 28 31 36 45
49 48 49 43 42 39 23 17 19 19 20 23 17 21 22 22 21 21 22 22 20 18 16 13 11 11 13 17 20 25 32 37 44 49 56 60 65 60 50 39 27 25 26 30 37
48 49 50 48 40 41 34 20 18 20 22 22 24 22 23 24 23 23 23 20 19 18 17 13 12 11 13 17 20 25 31 36 44 50 58 63 64 63 55 41 27 24 21 26 32
58 54 51 49 47 39 36 32 22 17 21 21 20 21 23 26 25 24 23 20 18 18 15 14 9 8 13 17 20 25 32 36 44 51 58 62 67 65 56 46 32 26 23 19 29
59 65 55 48 49 47 39 34 30 24 22 19 21 24 25 27 27 25 24 21 18 15 16 13 9 9 14 16 22 24 29 36 42 47 53 59 67 70 60 52 42 31 22 18 25
57 62 66 56 48 50 45 36 34 27 31 28 23 23 25 29 28 26 25 23 20 18 16 14 7 12 13 16 18 23 28 34 40 46 52 59 65 70 66 52 36 35 25 18 23
60 62 60 66 59 52 50 40 35 35 25 26 25 26 27 31 30 29 26 25 23 20 17 15 9 9 13 15 20 25 31 35 39 46 51 57 64 70 72 62 50 39 30 18 23
54 63 63 54 69 61 49 48 35 33 27 26 27 29 30 33 32 29 26 24 24 24 19 14 10 9 13 17 21 28 31 35 37 43 50 55 62 68 74 72 60 42 36 24 20
66 68 70 65 61 64 56 48 41 34 33 29 29 31 33 36 35 32 28 25 24 23 21 17 15 13 12 12 21 30 31 34 36 40 47 53 60 66 71 74 65 49 35 27 16
73 74 75 70 61 68 61 52 47 37 32 30 31 31 38 40 39 35 31 28 26 24 23 20 19 15 11 15 17 26 29 32 35 39 44 50 57 65 69 74 71 59 39 25 12
79 76 73 69 64 56 65 58 50 42 29 31 32 32 36 43 43 39 35 31 29 27 25 21 20 14 15 14 16 22 26 29 33 37 41 47 53 60 68 72 77 68 50 27 8
86 83 78 72 64 59 60 60 56 48 32 33 33 36 35 44 46 43 38 35 32 29 27 23 19 16 16 18 16 20 22 25 31 36 40 45 50 55 62 67 72 73 62 42 20
98 97 90 83 70 68 68 60 62 48 42 36 35 40 38 42 47 46 43 39 36 33 30 29 23 19 20 21 18 18 19 21 28 34 38 43 46 50 56 64 68 71 70 56 34
106 98 96 90 81 75 76 67 54 52 48 44 42 37 43 43 50 48 47 44 40 37 33 31 28 26 24 24 17 14 17 18 23 29 34 38 42 46 52 57 63 67 69 66 50
108 102 92 90 88 79 79 73 54 57 53 51 48 42 42 47 50 52 49 48 45 41 37 37 36 35 29 26 19 13 17 15 18 26 32 36 39 42 47 51 57 61 64 65 61
106 101 90 86 89 85 83 72 61 63 61 56 50 49 44 47 49 51 53 52 51 46 42 40 38 38 34 26 21 15 17 16 16 22 29 33 36 37 40 44 50 54 59 61 62
101 94 89 85 92 90 90 74 66 68 66 62 60 55 51 43 51 53 51 54 53 51 47 43 41 39 37 34 29 23 16 17 16 17 23 30 32 35 37 38 42 48 52 54 56
98 92 85 87 92 92 83 78 71 73 72 71 67 62 55 50 51 54 54 54 54 54 53 49 46 43 40 39 37 32 26 18 20 16 19 26 29 32 35 37 36 40 45 48 50
93 90 91 91 94 91 82 86 79 79 76 77 70 71 64 57 53 55 57 56 53 54 55 54 52 49 45 43 41 37 30 27 24 20 23 21 26 29 32 34 36 35 39 42 45
93 91 92 93 88 90 89 92 97 86 83 82 80 76 72 63 58 56 59 59 59 56 56 55 54 52 49 45 42 39 35 30 31 22 18 22 21 25 28 30 33 34 36 38 38
83 83 88 86 88 88 96 97 99 92 90 88 86 80 74 72 67 60 58 64 66 62 62 57 55 52 49 46 43 41 38 35 33 27 20 22 19 21 25 25 28 30 32 35 37
79 80 82 84 89 94 102 104 102 97 99 91 86 84 80 74 69 69 69 71 73 71 68 64 58 55 50 45 43 42 39 35 33 20 25 24 20 19 21 22 24 27 28 31 32
75 76 81 85 91 100 103 100 97 102 104 98 94 93 87 77 80 83 82 79 75 69 63 62 62 59 54 49 44 44 39 35 31 23 21 24 22 18 19 19 21 24 26 27 29

GFSSW_250_spd_135.txt.gz
Wind_Speed
44 45 48 47 49 48 47 44 36 15 16 24 35 39 38 31 38 37 39 46 47 47 46 47 52 46 40 30 28 26 23 20 21 22 25 28 29 28 32 39 45 51 55 59 60
38 42 42 48 45 46 49 49 41 35 17 21 31 38 32 39 37 39 46 44 44 46 51 48 39 33 27 25 23 21 17 20 22 24 25 28 28 30 35 41 48 55 59 60 59
38 40 40 42 45 43 46 49 49 43 38 18 25 29 38 38 42 47 51 51 54 53 49 37 28 26 23 21 19 15 18 21 22 25 27 29 29 34 38 44 51 57 60 56 56
44 40 39 40 42 42 46 42 47 50 48 36 19 23 27 33 40 44 43 43 42 39 34 25 24 24 19 18 17 16 18 20 22 24 27 29 32 36 40 47 54 61 64 56 45
43 44 42 38 37 41 44 42 44 47 46 47 35 20 23 29 31 30 29 29 28 29 28 25 24 20 17 17 16 17 18 19 22 24 28 32 35 39 43 47 55 63 69 59 50
43 42 39 37 37 35 38 42 44 48 45 46 37 27 15 18 19 20 22 25 28 27 27 25 22 19 18 17 17 17 18 19 19 25 28 33 37 41 46 51 56 61 67 62 53
45 43 42 40 37 36 33 37 41 46 45 45 42 33 26 20 21 23 25 21 20 26 24 22 21 20 19 18 18 18 16 14 18 25 28 33 39 43 50 54 59 60 65 63 53
46 48 49 45 46 38 36 37 38 41 45 45 42 43 33 22 25 23 25 26 25 25 23 21 19 18 18 19 19 18 15 16 20 25 31 37 43 45 51 58 63 67 71 69 54
55 54 49 48 48 46 44 40 39 39 43 46 47 45 44 30 27 25 23 27 26 25 24 20 18 18 18 17 16 15 13 17 19 27 32 38 45 47 52 59 66 69 72 73 57
59 55 55 56 54 51 46 42 43 45 43 43 46 48 45 38 29 30 30 28 29 26 24 21 20 18 19 15 13 14 10 14 18 28 33 38 45 49 53 57 65 70 74 77 61
65 61 57 56 56 54 50 49 46 44 47 48 47 45 41 44 33 27 31 29 28 27 26 23 23 20 21 20 16 15 13 18 24 29 33 38 44 49 54 55 61 68 74 78 61
72 69 67 61 60 61 57 51 52 49 46 47 48 49 42 39 33 31 27 30 30 31 27 26 25 23 22 24 21 20 20 21 24 24 33 35 41 48 54 57 60 67 73 76 56
79 76 73 71 68 62 63 57 53 50 51 53 42 47 49 33 37 32 29 30 33 33 31 28 27 26 24 25 27 27 26 20 19 22 32 35 41 48 53 58 60 64 71 76 58
84 85 84 78 76 70 66 63 62 58 55 54 56 49 46 40 39 35 33 33 35 36 35 32 29 27 27 26 27 25 28 25 18 21 28 34 38 47 51 56 58 63 71 76 67
89 89 90 85 84 77 77 71 67 70 62 55 57 50 53 41 47 44 37 32 39 38 37 35 33 29 29 27 28 26 26 26 28 20 23 32 38 43 50 54 57 62 67 71 72
96 96 95 90 88 86 82 80 74 73 62 62 60 59 52 48 49 54 42 36 41 43 42 39 37 33 29 27 28 26 23 19 17 18 21 27 34 39 46 51 54 58 62 67 71
99 99 97 93 92 93 89 85 89 78 68 66 65 63 61 56 54 57 52 43 37 46 46 43 40 36 32 28 28 28 25 20 17 19 18 23 29 37 42 47 51 54 58 61 64
106 108 102 102 101 102 101 97 98 80 76 73 74 70 69 62 60 56 54 47 40 48 52 49 45 41 35 32 32 31 27 21 20 21 19 20 25 33 38 43 46 49 52 56 59
111 112 110 111 109 108 112 113 98 84 83 82 80 78 76 73 64 62 55 51 48 47 52 54 50 46 41 37 34 32 32 27 25 20 19 20 23 30 33 38 41 44 47 51 55
115 111 109 115 119 116 119 111 105 94 92 95 92 82 77 76 69 67 60 56 57 51 53 56 56 51 46 42 38 35 33 31 30 25 24 20 24 25 28 32 37 39 42 44 49
121 113 116 119 124 126 119 114 105 99 100 98 94 88 81 77 69 73 64 63 62 58 52 57 58 55 51 46 42 39 35 34 31 27 27 25 23 23 26 27 30 34 37 41 42
122 118 117 117 121 118 111 102 95 96 95 91 89 84 81 78 69 79 71 69 66 64 53 57 55 56 55 50 46 42 39 37 33 29 26 27 24 26 22 24 24 29 32 34 38
118 107 102 107 107 108 102 99 92 90 85 88 88 84 80 76 74 82 80 77 71 69 63 57 54 57 55 52 50 47 43 38 35 31 27 27 25 24 19 20 20 21 26 28 31
104 95 94 100 97 95 92 86 85 81 82 89 85 81 80 78 77 87 86 83 76 74 69 60 57 58 58 57 52 49 45 42 39 33 30 28 26 23 20 20 18 19 21 23 26
91 85 87 86 90 85 86 82 82 80 82 86 83 80 80 82 83 92 88 87 80 77 73 65 60 63 60 57 55 51 47 44 40 35 31 28 25 22 21 16 16 15 16 20 23
85 83 84 75 80 78 77 74 75 75 79 83 81 81 86 84 87 97 96 93 89 82 75 70 65 66 64 59 56 51 47 45 41 35 29 25 24 21 17 16 17 16 16 16 19
77 79 79 67 73 70 71 74 73 76 78 83 85 89 92 85 91 103 103 96 93 89 79 74 72 67 65 63 56 46 47 44 39 33 27 25 24 21 18 18 19 19 17 17 16